Simultaneous Nadir Overpasses (SNOs) Predictions

Prediction of SNOs between NOAA-19 and TERRA Satellite Orbit:

Table of predicted SNOs for the next 14.0 days since TLE Epoch: 12/26/2011
Index Date Time (NOAA-19) NOAA-19 Lat,Lon TERRA Lat,Lon Distance(km) Time Diff (sec)
1 12/27/2011 13:31:33 -71.46, 152.39 -71.42, 159.76 260.63 48
2 12/27/2011 14:21:53 68.88, -36.29 68.90, -36.25 3.00 39
3 12/27/2011 15:12:46 -68.72, 131.20 -68.73, 131.17 1.83 43
4 12/27/2011 16:03:04 65.93, -58.22 65.91, -64.32 276.97 46
5 12/29/2011 18:16:00 -70.18, 83.35 -70.10, 86.66 125.43 63
6 12/29/2011 19:06:44 68.85,-107.46 68.83,-107.40 2.65 7
7 12/29/2011 19:57:35 -68.57, 60.18 -68.61, 59.95 10.26 72
8 12/31/2011 22:10:39 72.46,-159.23 72.43,-148.25 367.90 31
9 12/31/2011 23:00:30 -69.06, 13.82 -69.04, 14.13 12.82 70
10 12/31/2011 23:51:34 68.78,-178.59 68.76,-178.57 2.88 24
11 01/01/2012 00:42:05 -67.43, -9.57 -67.48, -12.47 123.63 64
12 01/03/2012 02:55:01 70.98, 132.34 70.93, 138.13 210.12 54
13 01/03/2012 03:45:18 -68.89, -57.16 -68.89, -57.12 1.84 42
14 01/03/2012 04:36:24 68.74, 110.26 68.73, 110.31 2.57 56
15 01/03/2012 05:26:31 -66.07, -79.22 -66.09, -85.01 260.73 48
16 01/05/2012 07:39:29 69.80, 63.04 69.68, 65.22 85.12 66
17 01/05/2012 08:30:07 -68.79,-128.24 -68.80,-128.31 2.96 12
18 01/05/2012 09:21:04 68.18, 39.80 68.23, 38.64 48.38 70
19 01/05/2012 10:10:48 -64.23,-148.57 -64.23,-157.82 447.27 15
20 01/07/2012 11:34:05 -72.57, 179.70 -72.56,-168.86 380.74 29
21 01/07/2012 12:24:02 68.89, -6.85 68.90, -6.88 1.71 64
22 01/07/2012 13:14:57 -68.76, 160.59 -68.74, 160.55 2.59 20
23 01/07/2012 14:05:32 66.98, -29.93 66.99, -33.84 169.92 59
24 01/09/2012 16:18:26 -71.08, 111.32 -70.99, 117.36 218.39 54
25 01/09/2012 17:08:51 68.85, -78.00 68.83, -78.04 2.29 33




NCC Satellite Simultaneous Nadir Overpasses (SNOs) Prediction Service
